Iowa City, IA

12:58 PM CST on February 18, 2018 (GMT -0600)
Iowa City Municipal

Weather History for KIOW - February, 2014

Change the Weather History Date:

Tuesday, February 4, 2014

  Actual Average Record
Temperature  
Mean Temperature 13 °F 24 °F  
Max Temperature 19 °F 32 °F 57 °F (2005)
Min Temperature 6 °F 16 °F -12 °F (1982)
Degree Days  
Heating Degree Days 52 41  
Month to date heating degree days 223 167  
Since 1 July heating degree days 4583 4034  
Cooling Degree Days 0 0  
Month to date cooling degree days 0 0  
Year to date cooling degree days 0 0  
Moisture  
Dew Point 10 °F    
Average Humidity 72    
Maximum Humidity 84    
Minimum Humidity 59    
Precipitation  
Precipitation 0.03 in 0.04 in 0.52 in (1986)
Month to date precipitation 0.14 0.15  
Year to date precipitation 0.49 1.07  
Sea Level Pressure  
Sea Level Pressure 30.29 in    
Wind  
Wind Speed 7 mph (NNE)    
Max Wind Speed 17 mph    
Max Gust Speed 23 mph    
Visibility 3 miles    
Events Fog , Snow    
T = Trace of Precipitation, MM = Missing Value Source: NWS Daily Summary

Daily Weather History Graph

Daily Weather History Graph

Search for Another Location

Airport or City:

Trip Planner

Search our weather history database for the weather conditions in past years. The results will help you decide how hot, cold, wet, or windy it might be!

Date:

Astronomy

Feb. 04, 2014 Rise Set
Actual Time 7:14 AM CST 5:25 PM CST
Civil Twilight 6:45 AM CST 5:55 PM CST
Nautical Twilight 6:12 AM CST 6:28 PM CST
Astronomical Twilight 5:40 AM CST 7:00 PM CST
Moon 9:48 AM CST (2/4) 11:25 PM CST (2/4)
Length of Visible Light 11h 09m
Length of Day
10h 10m
Waxing Crescent, 29% of the Moon is Illuminated
Feb 4
Waxing Crescent
Feb 6
First Quarter
Feb 14
Full
Feb 22
Last Quarter
Mar 1
New

Hourly Weather History & Observations

Time (CST) Temp. Windchill Dew Point Humidity Pressure Visibility Wind Dir Wind Speed Gust Speed Precip Events Conditions
12:52 AM 10.9 °F - 1.9 °F 67% 30.41 in 10.0 mi Calm Calm - N/A   Mostly Cloudy
1:52 AM 9.0 °F - 1.9 °F 73% 30.41 in 10.0 mi Calm Calm - N/A   Clear
2:52 AM 10.0 °F - 3.9 °F 76% 30.42 in 10.0 mi Calm Calm - N/A   Overcast
3:52 AM 10.9 °F - 5.0 °F 77% 30.41 in 10.0 mi Calm Calm - N/A   Overcast
4:52 AM 12.0 °F - 3.9 °F 70% 30.42 in 10.0 mi Calm Calm - N/A   Partly Cloudy
5:52 AM 12.0 °F - 3.9 °F 70% 30.43 in 10.0 mi Calm Calm - N/A   Overcast
6:52 AM 12.9 °F - 3.9 °F 67% 30.45 in 10.0 mi Calm Calm - N/A   Overcast
7:52 AM 14.0 °F 8.2 °F 5.0 °F 67% 30.44 in 10.0 mi ENE 3.5 mph - N/A   Overcast
8:52 AM 15.1 °F 9.4 °F 5.0 °F 64% 30.43 in 10.0 mi ENE 3.5 mph - N/A   Overcast
9:52 AM 16.0 °F 6.3 °F 3.9 °F 59% 30.41 in 10.0 mi ENE 6.9 mph - N/A   Overcast
10:52 AM 17.1 °F 10.0 °F 6.1 °F 62% 30.41 in 10.0 mi East 4.6 mph - N/A   Overcast
11:52 AM 18.0 °F 11.1 °F 6.1 °F 60% 30.38 in 10.0 mi East 4.6 mph - N/A   Overcast
12:52 PM 18.0 °F 6.1 °F 10.0 °F 71% 30.34 in 3.0 mi East 10.4 mph - 0.00 in Snow Light Snow
1:29 PM 17.6 °F 9.3 °F 10.4 °F 73% 30.33 in 2.5 mi ENE 5.8 mph - 0.00 in Snow Light Snow
1:45 PM 17.6 °F 10.7 °F 12.2 °F 79% 30.31 in 1.5 mi ENE 4.6 mph - 0.00 in Snow Light Snow
1:52 PM 18.0 °F 9.8 °F 12.0 °F 78% 30.34 in 1.0 mi NNE 5.8 mph - 0.00 in Snow Light Snow
2:01 PM 17.6 °F 6.4 °F 12.2 °F 79% 30.29 in 0.5 mi NNE 9.2 mph - 0.00 in Snow Snow
2:19 PM 17.6 °F 8.2 °F 12.2 °F 79% 30.30 in 0.5 mi NNE 6.9 mph - 0.01 in Fog , Snow Snow
2:41 PM 17.6 °F 5.7 °F 12.2 °F 79% 30.25 in 0.8 mi NNE 10.4 mph - 0.01 in Snow Light Snow
2:52 PM 17.1 °F 5.8 °F 12.9 °F 84% 30.30 in 0.8 mi NNE 9.2 mph - 0.01 in Snow Light Snow
3:13 PM 17.6 °F 5.0 °F 12.2 °F 79% 30.24 in 1.0 mi NNE 11.5 mph - 0.00 in Snow Light Snow
3:29 PM 17.6 °F 6.4 °F 12.2 °F 79% 30.26 in 1.2 mi NNE 9.2 mph - 0.00 in Snow Light Snow
3:52 PM 17.1 °F 3.0 °F 12.0 °F 81% 30.29 in 1.5 mi NNE 13.8 mph - 0.00 in Snow Light Snow
4:04 PM 17.6 °F 5.0 °F 12.2 °F 79% 30.23 in 2.0 mi NNE 11.5 mph - 0.00 in Snow Light Snow
4:48 PM 17.6 °F 6.4 °F 12.2 °F 79% 30.24 in 1.5 mi North 9.2 mph - 0.00 in Snow Light Snow
4:52 PM 18.0 °F 7.7 °F 14.0 °F 84% 30.29 in 1.5 mi NNE 8.1 mph - 0.00 in Snow Light Snow
5:12 PM 17.6 °F 6.4 °F 14.0 °F 86% 30.25 in 2.0 mi NNE 9.2 mph - 0.00 in Snow Light Snow
5:18 PM 17.6 °F 5.0 °F 14.0 °F 86% 30.25 in 1.8 mi North 11.5 mph - 0.00 in Snow Light Snow
5:52 PM 17.1 °F 4.3 °F 12.9 °F 84% 30.29 in 1.0 mi NNE 11.5 mph - 0.00 in Snow Light Snow
5:59 PM 17.6 °F 7.3 °F 14.0 °F 86% 30.25 in 0.8 mi NNE 8.1 mph - 0.00 in Snow Light Snow
6:36 PM 17.6 °F 5.0 °F 12.2 °F 79% 30.23 in 1.0 mi NNE 11.5 mph - 0.01 in Snow Light Snow
6:52 PM 17.1 °F 5.0 °F 12.9 °F 84% 30.27 in 1.0 mi NNE 10.4 mph - 0.01 in Snow Light Snow
7:29 PM 17.6 °F 3.7 °F 12.2 °F 79% 30.21 in 1.2 mi NNE 13.8 mph 21.9 mph 0.00 in Snow Light Snow
7:52 PM 17.1 °F 2.0 °F 12.9 °F 84% 30.25 in 1.2 mi NNE 16.1 mph - 0.00 in Snow Light Snow
8:40 PM 17.6 °F 2.7 °F 12.2 °F 79% 30.21 in 2.0 mi NNE 16.1 mph 20.7 mph 0.00 in Snow Light Snow
8:52 PM 17.1 °F 2.5 °F 12.0 °F 81% 30.24 in 2.0 mi NNE 15.0 mph - 0.00 in Snow Light Snow
9:07 PM 17.6 °F 2.7 °F 12.2 °F 79% 30.20 in 1.5 mi North 16.1 mph 20.7 mph 0.00 in Snow Light Snow
9:17 PM 17.6 °F 2.7 °F 12.2 °F 79% 30.21 in 1.5 mi NNE 16.1 mph 20.7 mph 0.00 in Snow Light Snow
9:49 PM 17.6 °F 3.7 °F 12.2 °F 79% 30.21 in 1.0 mi North 13.8 mph - 0.00 in Snow Light Snow
9:52 PM 17.1 °F 3.0 °F 12.9 °F 84% 30.25 in 1.0 mi North 13.8 mph - 0.00 in Snow Light Snow
10:05 PM 17.6 °F 4.3 °F 12.2 °F 79% 30.21 in 1.0 mi North 12.7 mph - 0.00 in Snow Light Snow
10:33 PM 17.6 °F 5.7 °F 12.2 °F 79% 30.22 in 1.2 mi North 10.4 mph - 0.00 in Snow Light Snow
10:47 PM 17.6 °F 4.3 °F 12.2 °F 79% 30.22 in 1.0 mi North 12.7 mph - 0.00 in Snow Light Snow
10:52 PM 17.1 °F 2.5 °F 12.9 °F 84% 30.26 in 1.0 mi North 15.0 mph - 0.00 in Snow Light Snow
11:01 PM 17.6 °F 3.2 °F 12.2 °F 79% 30.22 in 1.2 mi North 15.0 mph - 0.00 in Snow Light Snow
11:14 PM 17.6 °F 5.7 °F 12.2 °F 79% 30.22 in 1.0 mi North 10.4 mph - 0.00 in Snow Light Snow
11:27 PM 15.8 °F 2.1 °F 12.2 °F 86% 30.22 in 0.8 mi North 12.7 mph - 0.00 in Snow Light Snow
11:37 PM 15.8 °F 2.1 °F 12.2 °F 86% 30.22 in 1.0 mi North 12.7 mph - 0.00 in Snow Light Snow
11:52 PM 16.0 °F 1.7 °F 12.0 °F 84% 30.26 in 1.0 mi North 13.8 mph - 0.00 in Snow Light Snow